Weather in Kirov

Belarus     51°30′14″N   29°25′37″E
temp.,
°C
wind,
m/s
gust,
m/s
humid.,
%
clouds,
%
prec.,
mm/h
press.,
hPa
HPBL,
m
7 july, thu
thu700:00+14wnw51295100 1.0 1014484
03:00+14nw41093100 1.4 1014495
06:00+13nw41092100 0.0 1015530
09:00+17nw476999 0.0 1016709
12:00+22nnw4549100 0.0 10161525
15:00+21wnw4550100 0.0 10161184
18:00+20ene1253100 0.0 1017376
21:00+17wnw116791 0.0 101714
8 july, fri
fri800:00+17nnw236492 0.0 101862
03:00+15n2270100 0.0 101826
06:00+14nnw227795 0.0 101935
09:00+19n245763 0.0 1019539
12:00+24nne223993 0.0 10182257
15:00+25ne233487 0.0 10172342
18:00+24nne323698 0.0 10161633
21:00+19n2659100 0.0 1017169
9 july, sat
sat900:00+18nne2264100 0.0 101752
03:00+17nnw116758 0.0 101620
06:00+15nnw2375100 0.0 101698
09:00+20n2357100 0.0 1016458
12:00+25n1239100 0.0 10151913
15:00+26ne1236100 0.0 10132495
18:00+22se2454100 0.0 1012178
21:00+20w2361100 0.0 101161
10 july, sun
sun1000:00+16nw3883100 0.0 1011192
03:00+16nw389199 0.3 1011285
06:00+15nw3993100 0.3 1010344
09:00+17nnw467570 0.3 1010501
12:00+20wnw4555100 0.0 10101127
15:00+23nnw444082 0.0 10101804
18:00+22nw453936 0.0 10092049
21:00+16nnw22644 0.0 101031
11 july, mon
mon1100:00+13nw3775100 0.0 1011128
03:00+12wnw3978100 0.0 1010188
06:00+11wnw3984100 0.0 1010257
09:00+16wnw4662100 0.0 1009660
12:00+21wnw464599 0.0 10081733
15:00+23wnw563493 0.0 10072532
18:00+20w6954100 0.0 1008949
21:00+17w497099 0.0 1009534